| time (UTC) | temp F | wind direction | speed MPH | gust MPH | rain 1hr in | rain 24hr in | rain mn in | humidity % | barometer mb |
| 20260504230626 | 82 | 205 | 8.0 | 22.0 | 0.00 | 0.00 | 0.00 | 59 | 1007.5 |
| 20260504224624 | 82 | 150 | 9.0 | 18.0 | 0.00 | 0.00 | 0.00 | 60 | 1007.7 |
| 20260504221624 | 82 | 209 | 12.0 | 19.0 | 0.00 | 0.00 | 0.00 | 59 | 1008.0 |
| 20260504220625 | 82 | 158 | 8.0 | 18.0 | 0.00 | 0.00 | 0.00 | 58 | 1007.9 |
| 20260504214624 | 82 | 141 | 13.0 | 18.0 | 0.00 | 0.00 | 0.00 | 58 | 1008.0 |
| 20260504213624 | 82 | 199 | 9.0 | 16.0 | 0.00 | 0.00 | 0.00 | 59 | 1008.1 |
| 20260504212624 | 81 | 189 | 11.0 | 16.0 | 0.00 | 0.00 | 0.00 | 61 | 1008.5 |
| 20260504211624 | 82 | 137 | 9.0 | 16.0 | 0.00 | 0.00 | 0.00 | 59 | 1008.8 |
| 20260504210624 | 82 | 136 | 7.0 | 16.0 | 0.00 | 0.00 | 0.00 | 60 | 1008.9 |
| 20260504204624 | 82 | 158 | 11.0 | 19.0 | 0.00 | 0.00 | 0.00 | 60 | 1009.2 |
| 20260504203625 | 81 | 201 | 5.0 | 13.0 | 0.00 | 0.00 | 0.00 | 59 | 1009.4 |
| 20260504202625 | 81 | 170 | 5.0 | 15.0 | 0.00 | 0.00 | 0.00 | 60 | 1009.7 |
| 20260504201624 | 82 | 213 | 8.0 | 13.0 | 0.00 | 0.00 | 0.00 | 59 | 1009.8 |
| 20260504200624 | 81 | 186 | 5.0 | 15.0 | 0.00 | 0.00 | 0.00 | 60 | 1010.0 |
| 20260504195624 | 81 | 171 | 16.0 | 18.0 | 0.00 | 0.00 | 0.00 | 59 | 1010.1 |
| 20260504194625 | 81 | 130 | 17.0 | 17.0 | 0.00 | 0.00 | 0.00 | 60 | 1010.4 |
| 20260504193625 | 81 | 171 | 6.0 | 15.0 | 0.00 | 0.00 | 0.00 | 60 | 1010.5 |
| 20260504191624 | 81 | 175 | 10.0 | 17.0 | 0.00 | 0.00 | 0.00 | 60 | 1010.9 |
| 20260504190625 | 79 | 188 | 3.0 | 14.0 | 0.00 | 0.00 | 0.00 | 62 | 1011.1 |
| 20260504185624 | 79 | 130 | 9.0 | 16.0 | 0.00 | 0.00 | 0.00 | 63 | 1011.1 |
| 20260504184625 | 79 | 175 | 6.0 | 15.0 | 0.00 | 0.00 | 0.00 | 63 | 1011.1 |
| 20260504183625 | 78 | 160 | 13.0 | 16.0 | 0.00 | 0.00 | 0.00 | 63 | 1011.3 |
| 20260504182624 | 78 | 210 | 7.0 | 14.0 | 0.00 | 0.00 | 0.00 | 63 | 1011.5 |
| 20260504180624 | 78 | 211 | 9.0 | 17.0 | 0.00 | 0.00 | 0.00 | 64 | 1011.8 |
| 20260504175624 | 76 | 168 | 9.0 | 16.0 | 0.00 | 0.00 | 0.00 | 65 | 1012.0 |
| 20260504174624 | 76 | 209 | 9.0 | 17.0 | 0.00 | 0.00 | 0.00 | 64 | 1012.2 |
| 20260504172624 | 76 | 177 | 13.0 | 16.0 | 0.00 | 0.00 | 0.00 | 65 | 1012.6 |
| 20260504171624 | 76 | 235 | 7.0 | 19.0 | 0.00 | 0.00 | 0.00 | 66 | 1012.9 |
| 20260504170624 | 75 | 200 | 8.0 | 16.0 | 0.00 | 0.00 | 0.00 | 67 | 1013.0 |
| 20260504150624 | 71 | 184 | 10.0 | 19.0 | 0.00 | 0.00 | 0.00 | 70 | 1013.6 |
| 20260504110624 | 61 | 184 | 5.0 | 7.0 | 0.00 | 0.00 | 0.00 | 78 | 1013.3 |
| 20260504081625 | 62 | 167 | 4.0 | 6.0 | 0.00 | 0.00 | 0.00 | 75 | 1013.9 |
| 20260504080625 | 62 | 154 | 2.0 | 8.0 | 0.00 | 0.00 | 0.00 | 75 | 1014.1 |
| 20260504050625 | 66 | 167 | 9.0 | 11.0 | 0.00 | 0.00 | 0.00 | 66 | 1016.2 |
| 20260504045625 | 66 | 140 | 5.0 | 11.0 | 0.00 | 0.00 | 0.00 | 66 | 1016.0 |
| 20260504043624 | 67 | 182 | 7.0 | 11.0 | 0.00 | 0.00 | 0.00 | 65 | 1016.3 |
| 20260504042624 | 67 | 175 | 4.0 | 11.0 | 0.00 | 0.00 | 0.00 | 64 | 1016.2 |
| 20260504041625 | 67 | 167 | 1.0 | 12.0 | 0.00 | 0.00 | 0.00 | 63 | 1016.3 |
| 20260504040625 | 67 | 151 | 8.0 | 14.0 | 0.00 | 0.00 | 0.00 | 62 | 1016.4 |
| 20260504035625 | 66 | 134 | 5.0 | 8.0 | 0.00 | 0.00 | 0.00 | 62 | 1016.4 |
| 20260504034626 | 66 | 122 | 1.0 | 3.0 | 0.00 | 0.00 | 0.00 | 61 | 1016.5 |
| 20260504032625 | 67 | 111 | 1.0 | 3.0 | 0.00 | 0.00 | 0.00 | 59 | 1016.2 |
| 20260504031625 | 67 | 150 | 0.0 | 3.0 | 0.00 | 0.00 | 0.00 | 59 | 1016.3 |
| 20260504030625 | 68 | 138 | 0.0 | 3.0 | 0.00 | 0.00 | 0.00 | 58 | 1016.3 |
| 20260504025624 | 68 | 123 | 2.0 | 4.0 | 0.00 | 0.00 | 0.00 | 57 | 1016.2 |
| 20260504024625 | 69 | 144 | 0.0 | 4.0 | 0.00 | 0.00 | 0.00 | 57 | 1016.3 |
| 20260504021625 | 69 | 169 | 0.0 | 1.0 | 0.00 | 0.00 | 0.00 | 57 | 1016.1 |
| 20260504014624 | 70 | 142 | 0.0 | 1.0 | 0.00 | 0.00 | 0.00 | 55 | 1015.7 |
| 20260504013623 | 70 | 146 | 0.0 | 2.0 | 0.00 | 0.00 | 0.00 | 54 | 1015.6 |
| 20260504012623 | 71 | 130 | 0.0 | 2.0 | 0.00 | 0.00 | 0.00 | 52 | 1015.5 |
| 20260504011624 | 72 | 123 | 1.0 | 3.0 | 0.00 | 0.00 | 0.00 | 50 | 1015.7 |
| 20260504010624 | 73 | 119 | 0.0 | 2.0 | 0.00 | 0.00 | 0.00 | 48 | 1015.6 |
| 20260504005624 | 74 | 173 | 0.0 | 5.0 | 0.00 | 0.00 | 0.00 | 46 | 1015.6 |
| 20260504004623 | 74 | 150 | 2.0 | 7.0 | 0.00 | 0.00 | 0.00 | 45 | 1015.5 |
| 20260504003623 | 75 | 202 | 3.0 | 6.0 | 0.00 | 0.00 | 0.00 | 45 | 1015.6 |
| 20260504002623 | 75 | 166 | 4.0 | 7.0 | 0.00 | 0.00 | 0.00 | 44 | 1015.6 |
| 20260504000623 | 76 | 155 | 2.0 | 9.0 | 0.00 | 0.00 | 0.00 | 41 | 1016.0 |
| 20260503233623 | 76 | 167 | 5.0 | 8.0 | 0.00 | 0.00 | 0.00 | 42 | 1016.2 |
| 20260503232624 | 76 | 174 | 6.0 | 11.0 | 0.00 | 0.00 | 0.00 | 40 | 1016.2 |